Time,TemperatureF,DewpointF,PressureIn,WindDirection,WindDirectionDegrees,WindSpeedMPH,WindSpeedGustMPH,Humidity,HourlyPrecipIn,Conditions,Clouds,dailyrainin,SoftwareType,DateUTC
2013-01-23 00:00:00,25.7,11.4,30.39,East,87,0.0,0.0,54,0.00,,SKC,0.01,VWS V12.07,2013-01-23 07:00:00,
2013-01-23 00:30:00,25.6,12.1,30.39,East,87,0.0,0.0,56,0.00,,SKC,0.00,VWS V12.07,2013-01-23 07:30:00,
2013-01-23 01:00:00,29.5,11.8,30.35,East,87,0.0,0.0,47,0.00,,SKC,0.00,VWS V12.07,2013-01-23 08:00:00,
2013-01-23 01:30:00,24.8,11.3,30.38,East,87,0.0,0.0,56,0.00,,SKC,0.00,VWS V12.07,2013-01-23 08:30:00,
2013-01-23 02:00:00,30.1,10.8,30.36,East,87,0.0,0.0,44,0.00,,SKC,0.00,VWS V12.07,2013-01-23 09:00:00,
2013-01-23 02:30:00,26.6,11.4,30.37,East,87,0.0,0.0,52,0.00,,SKC,0.00,VWS V12.07,2013-01-23 09:30:00,
2013-01-23 03:00:00,28.1,10.0,30.36,East,87,0.0,0.0,46,0.00,,SKC,0.00,VWS V12.07,2013-01-23 10:00:00,
2013-01-23 03:30:00,36.2,7.8,30.30,East,87,0.0,0.0,30,0.00,,SKC,0.00,VWS V12.07,2013-01-23 10:30:00,
2013-01-23 04:00:00,27.5,11.3,30.36,East,87,0.0,4.0,50,0.00,,SKC,0.00,VWS V12.07,2013-01-23 11:00:00,
2013-01-23 04:30:00,29.1,12.3,30.38,East,87,0.0,0.0,49,0.00,,SKC,0.00,VWS V12.07,2013-01-23 11:30:00,
2013-01-23 05:00:00,31.5,11.1,30.36,East,87,0.0,0.0,42,0.00,,SKC,0.00,VWS V12.07,2013-01-23 12:00:00,
2013-01-23 05:30:00,30.3,11.5,30.39,East,87,0.0,0.0,45,0.00,,SKC,0.00,VWS V12.07,2013-01-23 12:30:00,
2013-01-23 06:00:00,33.2,10.4,30.36,East,87,0.0,0.0,38,0.00,,SKC,0.00,VWS V12.07,2013-01-23 13:00:00,
2013-01-23 06:30:00,30.0,10.2,30.40,East,87,0.0,0.0,43,0.00,,SKC,0.00,VWS V12.07,2013-01-23 13:30:00,
2013-01-23 07:01:00,33.8,9.7,30.36,East,87,0.0,0.0,36,0.00,,SKC,0.00,VWS V12.07,2013-01-23 14:01:00,
2013-01-23 07:30:00,32.7,11.1,30.39,East,87,0.0,0.0,40,0.00,,SKC,0.00,VWS V12.07,2013-01-23 14:30:00,
2013-01-23 08:00:00,32.9,11.2,30.37,East,87,0.0,0.0,40,0.00,,SKC,0.00,VWS V12.07,2013-01-23 15:00:00,
2013-01-23 08:30:00,33.2,14.2,30.36,East,87,0.0,0.0,45,0.00,,SKC,0.00,VWS V12.07,2013-01-23 15:30:00,
2013-01-23 09:00:00,34.6,11.6,30.36,East,87,0.0,0.0,38,0.00,,SKC,0.00,VWS V12.07,2013-01-23 16:00:00,
2013-01-23 09:30:00,38.2,12.3,30.34,East,84,0.0,1.0,34,0.00,,SKC,0.00,VWS V12.07,2013-01-23 16:30:00,
2013-01-23 10:00:00,38.0,15.3,30.35,ENE,77,0.0,1.0,39,0.00,,SKC,0.00,VWS V12.07,2013-01-23 17:00:00,
2013-01-23 10:30:00,39.6,16.7,30.31,ENE,77,0.0,1.0,39,0.00,,SKC,0.00,VWS V12.07,2013-01-23 17:30:00,
2013-01-23 11:01:00,40.5,15.7,30.31,ENE,57,0.0,1.0,36,0.00,,SKC,0.00,VWS V12.07,2013-01-23 18:01:00,
2013-01-23 11:30:00,44.3,7.9,30.31,ENE,57,0.0,0.0,22,0.00,,SKC,0.00,VWS V12.07,2013-01-23 18:30:00,
2013-01-23 12:01:00,42.8,15.7,30.30,ENE,57,0.0,1.0,33,0.00,,SKC,0.00,VWS V12.07,2013-01-23 19:01:00,
2013-01-23 12:30:00,44.5,14.2,30.27,ENE,61,0.0,1.0,29,0.00,,SKC,0.00,VWS V12.07,2013-01-23 19:30:00,
2013-01-23 13:01:00,46.4,16.7,30.24,ENE,61,0.0,1.0,30,0.00,,SKC,0.00,VWS V12.07,2013-01-23 20:01:00,
2013-01-23 13:30:00,47.1,12.2,30.21,ENE,61,0.0,1.0,24,0.00,,SKC,0.00,VWS V12.07,2013-01-23 20:30:00,
2013-01-23 14:00:00,47.1,15.7,30.20,ENE,61,0.0,1.0,28,0.00,,SKC,0.00,VWS V12.07,2013-01-23 21:00:00,
2013-01-23 14:30:00,43.6,17.8,30.18,ENE,61,0.0,0.0,35,0.00,,SKC,0.00,VWS V12.07,2013-01-23 21:30:00,
2013-01-23 15:00:00,46.5,12.6,30.16,ENE,59,0.0,0.0,25,0.00,,SKC,0.00,VWS V12.07,2013-01-23 22:00:00,
2013-01-23 15:30:00,47.7,12.7,30.20,ENE,59,0.0,0.0,24,0.00,,SKC,0.00,VWS V12.07,2013-01-23 22:30:00,
2013-01-23 16:00:00,46.4,16.7,30.20,ENE,59,0.0,1.0,30,0.00,,SKC,0.00,VWS V12.07,2013-01-23 23:00:00,
2013-01-23 16:30:00,42.3,16.6,30.21,NE,38,0.0,0.0,35,0.00,,SKC,0.00,VWS V12.07,2013-01-23 23:30:00,
2013-01-23 17:01:00,41.1,16.8,30.23,NE,36,0.0,1.0,37,0.00,,SKC,0.00,VWS V12.07,2013-01-24 00:01:00,
2013-01-23 17:30:00,40.5,16.9,30.20,NE,36,0.0,0.0,38,0.00,,SKC,0.00,VWS V12.07,2013-01-24 00:30:00,
2013-01-23 18:01:00,39.8,14.4,30.21,NE,36,0.0,0.0,35,0.00,,SKC,0.00,VWS V12.07,2013-01-24 01:01:00,
2013-01-23 18:30:00,39.5,18.3,30.21,ESE,103,0.0,6.0,42,0.00,,SKC,0.00,VWS V12.07,2013-01-24 01:30:00,
2013-01-23 19:01:00,39.1,15.0,30.21,ESE,103,0.0,6.0,37,0.00,,SKC,0.00,VWS V12.07,2013-01-24 02:01:00,
2013-01-23 19:30:00,39.6,13.6,30.20,ESE,103,0.0,0.0,34,0.00,,SKC,0.00,VWS V12.07,2013-01-24 02:30:00,
2013-01-23 20:00:00,41.3,13.7,30.19,ESE,103,0.0,0.0,32,0.00,,SKC,0.00,VWS V12.07,2013-01-24 03:00:00,
2013-01-23 20:30:00,42.2,10.6,30.17,ESE,103,0.0,0.0,27,0.00,,SKC,0.00,VWS V12.07,2013-01-24 03:30:00,
2013-01-23 21:00:00,41.9,12.7,30.17,ESE,103,0.0,0.0,30,0.00,,SKC,0.00,VWS V12.07,2013-01-24 04:00:00,
2013-01-23 21:30:00,41.1,14.9,30.17,ESE,103,0.0,0.0,34,0.00,,SKC,0.00,VWS V12.07,2013-01-24 04:30:00,
2013-01-23 22:30:00,42.8,12.8,30.14,ESE,103,0.0,0.0,29,0.00,,SKC,0.00,VWS V12.07,2013-01-24 05:30:00,
2013-01-23 23:00:00,42.9,12.9,30.15,ESE,103,0.0,0.0,29,0.00,,SKC,0.00,VWS V12.07,2013-01-24 06:00:00,
2013-01-23 23:30:00,42.8,16.4,30.15,ESE,103,0.0,0.0,34,0.00,,SKC,0.00,VWS V12.07,2013-01-24 06:30:00,